GW3329 Weather Reports


time (UTC)temp
C
wind
direction
speed
KPH
gust
KPH
rain 1hr
cm
rain 24hr
cm
rain mn
cm
humidity
%
barometer
mb
20260508063701 14 190 3.2 4.8 0.00 0.00 0.00 87 1019.0
20260508063159 13 196 0.0 1.6 0.00 0.00 0.00 88 1019.1
20260508062656 13 180 0.0 0.0 0.00 0.00 0.00 88 1019.1
20260508062153 13 190 0.0 0.0 0.00 0.00 0.00 88 1019.2
20260508061649 13 178 0.0 0.0 0.00 0.00 0.00 88 1018.9
20260508061147 13 179 0.0 0.0 0.00 0.00 0.00 88 1018.9
20260508060644 13 180 0.0 0.0 0.00 0.00 0.00 89 1019.0
20260508060141 13 180 0.0 0.0 0.00 0.00 0.00 88 1019.1
20260508055637 14 181 0.0 0.0 0.00 0.00 0.00 87 1019.0
20260508055134 14 177 0.0 0.0 0.00 0.00 0.00 87 1019.1
20260508054630 15 164 0.0 0.0 0.00 0.00 0.00 86 1018.9
20260508054128 15 164 0.0 0.0 0.00 0.00 0.00 86 1019.2
20260508053624 15 184 0.0 0.0 0.00 0.00 0.00 86 1018.8
20260508053122 15 160 0.0 0.0 0.00 0.00 0.00 86 1019.1
20260508052619 14 174 0.0 0.0 0.00 0.00 0.00 87 1018.9
20260508052116 14 153 0.0 0.0 0.00 0.00 0.00 87 1019.1
20260508051612 14 147 0.0 0.0 0.00 0.00 0.00 87 1018.9
20260508051108 14 153 0.0 0.0 0.00 0.00 0.00 88 1018.8
20260508050604 14 153 0.0 0.0 0.00 0.00 0.00 87 1018.9
20260508045558 14 149 0.0 0.0 0.00 0.00 0.00 87 1018.8
20260508045056 14 149 0.0 0.0 0.00 0.00 0.00 87 1018.9
20260508044553 14 149 0.0 0.0 0.00 0.00 0.00 86 1019.0
20260508044049 15 153 0.0 0.0 0.00 0.00 0.00 85 1019.0
20260508043545 15 152 0.0 0.0 0.00 0.00 0.00 85 1018.8
20260508043043 15 146 0.0 0.0 0.00 0.00 0.00 84 1019.0
20260508042539 15 158 0.0 0.0 0.00 0.00 0.00 84 1018.7
20260508042037 15 173 0.0 0.0 0.00 0.00 0.00 84 1018.6
20260508041533 15 221 0.0 0.0 0.00 0.00 0.00 84 1018.7
20260508041030 15 200 0.0 0.0 0.00 0.00 0.00 84 1018.6
20260508040527 15 201 0.0 0.0 0.00 0.00 0.00 84 1018.5
20260508040024 15 202 0.0 0.0 0.00 0.00 0.00 83 1018.6
20260508035521 15 213 0.0 0.0 0.00 0.00 0.00 83 1018.6
20260508035018 15 161 0.0 0.0 0.00 0.00 0.00 83 1018.5
20260508034515 15 178 0.0 0.0 0.00 0.00 0.00 83 1018.7
20260508034012 15 159 0.0 1.6 0.00 0.00 0.00 82 1018.4
20260508033510 15 172 0.0 0.0 0.00 0.00 0.00 82 1018.4
20260508033008 16 210 0.0 0.0 0.00 0.00 0.00 81 1018.3
20260508032504 16 191 0.0 0.0 0.00 0.00 0.00 81 1018.2
20260508032002 16 162 0.0 0.0 0.00 0.00 0.00 80 1018.3
20260508031459 16 167 0.0 0.0 0.00 0.00 0.00 80 1018.1
20260508030954 16 157 0.0 0.0 0.00 0.00 0.00 79 1018.0
20260508030451 16 168 0.0 0.0 0.00 0.00 0.00 78 1018.1
20260508025949 16 221 0.0 0.0 0.00 0.00 0.00 78 1018.1
20260508025445 16 126 0.0 0.0 0.00 0.00 0.00 78 1018.0
20260508024942 17 140 0.0 0.0 0.00 0.00 0.00 77 1017.7
20260508024438 17 185 0.0 0.0 0.00 0.00 0.00 77 1018.2
20260508023935 17 166 0.0 0.0 0.00 0.00 0.00 76 1018.0
20260508023432 17 172 1.6 1.6 0.00 0.00 0.00 75 1018.0
20260508022929 18 170 0.0 4.8 0.00 0.00 0.00 74 1017.9
20260508022425 18 139 0.0 0.0 0.00 0.00 0.00 73 1017.8
20260508021921 18 181 1.6 3.2 0.00 0.00 0.00 72 1017.8
20260508021418 18 141 0.0 0.0 0.00 0.00 0.00 72 1017.7
20260508020914 18 162 0.0 1.6 0.00 0.00 0.00 71 1017.7
20260508020412 18 169 0.0 3.2 0.00 0.00 0.00 70 1017.9
20260508015909 19 148 0.0 3.2 0.00 0.00 0.00 70 1017.9
20260508015407 19 118 0.0 1.6 0.00 0.00 0.00 69 1017.9
20260508014903 20 103 0.0 6.4 0.00 0.00 0.00 68 1017.8
20260508014400 20 134 0.0 0.0 0.00 0.00 0.00 66 1017.9
20260508013855 20 161 0.0 1.6 0.00 0.00 0.00 65 1017.7
20260508013352 20 238 0.0 3.2 0.00 0.00 0.00 66 1017.6
20260508012849 20 287 3.2 4.8 0.00 0.00 0.00 65 1017.6
20260508012346 20 175 0.0 6.4 0.00 0.00 0.00 65 1017.8
20260508011844 20 2 1.6 3.2 0.00 0.00 0.00 65 1017.7
20260508011342 21 147 1.6 4.8 0.00 0.00 0.00 64 1017.7
20260508010838 21 81 0.0 3.2 0.00 0.00 0.00 63 1017.5
20260508010336 21 81 1.6 6.4 0.00 0.00 0.00 64 1017.7
20260508005833 21 63 0.0 1.6 0.00 0.00 0.00 63 1017.7
20260508005330 21 100 1.6 4.8 0.00 0.00 0.00 63 1017.6
20260508004826 21 17 3.2 3.2 0.00 0.00 0.00 63 1017.6
20260508004322 21 175 1.6 4.8 0.00 0.00 0.00 63 1017.8
20260508003818 21 32 3.2 6.4 0.00 0.00 0.00 62 1017.9
20260508003316 22 114 1.6 3.2 0.00 0.00 0.00 60 1017.6
20260508002813 22 158 1.6 4.8 0.00 0.00 0.00 60 1017.7
20260508002309 22 131 1.6 4.8 0.00 0.00 0.00 61 1017.7
20260508001806 22 4 3.2 6.4 0.00 0.00 0.00 60 1017.6
20260508001301 22 12 1.6 11.3 0.00 0.00 0.00 59 1017.7
20260508000758 22 318 3.2 6.4 0.00 0.00 0.00 59 1017.8
20260508000257 23 259 0.0 3.2 0.00 0.00 0.00 57 1017.7
20260507235751 22 204 0.0 9.7 0.00 0.00 0.00 57 1017.9
20260507235249 23 60 1.6 4.8 0.00 0.00 0.00 56 1017.6
20260507234746 23 208 3.2 6.4 0.00 0.00 0.00 56 1017.7
20260507234242 23 204 3.2 6.4 0.00 0.00 0.00 56 1017.7
20260507233738 23 195 3.2 6.4 0.00 0.00 0.00 55 1017.8
20260507233237 23 178 1.6 6.4 0.00 0.00 0.00 56 1017.8
20260507232734 23 289 0.0 11.3 0.00 0.00 0.00 56 1017.7
20260507232231 23 169 3.2 6.4 0.00 0.00 0.00 56 1017.8
20260507231727 23 179 3.2 11.3 0.00 0.00 0.00 56 1017.7
20260507231224 23 267 3.2 9.7 0.00 0.00 0.00 57 1017.6
20260507230721 23 275 6.4 9.7 0.00 0.00 0.00 55 1017.8
20260507230219 23 169 1.6 4.8 0.00 0.00 0.00 55 1017.7
20260507225717 23 58 3.2 3.2 0.00 0.00 0.00 55 1017.9
20260507225214 24 40 0.0 4.8 0.00 0.00 0.00 54 1018.0
20260507224710 23 38 1.6 4.8 0.00 0.00 0.00 55 1017.8
20260507224207 23 349 0.0 6.4 0.00 0.00 0.00 54 1018.1
20260507223703 24 246 6.4 11.3 0.00 0.00 0.00 53 1018.0
20260507223200 23 210 3.2 6.4 0.00 0.00 0.00 54 1018.2
20260507222657 24 200 3.2 9.7 0.00 0.00 0.00 54 1018.1
20260507222153 23 133 1.6 4.8 0.00 0.00 0.00 56 1018.2
20260507221650 23 3 6.4 6.4 0.00 0.00 0.00 55 1018.1
20260507221146 23 223 0.0 9.7 0.00 0.00 0.00 56 1018.2
20260507220643 23 205 1.6 9.7 0.00 0.00 0.00 57 1018.3
20260507220142 23 280 6.4 11.3 0.00 0.00 0.00 56 1018.3
20260507215637 23 341 3.2 12.9 0.00 0.00 0.00 57 1018.4
20260507215135 23 251 4.8 12.9 0.00 0.00 0.00 56 1018.5
20260507214632 23 148 0.0 14.5 0.00 0.00 0.00 58 1018.5
20260507214128 24 292 3.2 12.9 0.00 0.00 0.00 56 1018.8
20260507213625 23 306 0.0 4.8 0.00 0.00 0.00 57 1018.8
20260507213122 23 261 6.4 12.9 0.00 0.00 0.00 57 1018.8
20260507212618 23 193 4.8 9.7 0.00 0.00 0.00 58 1018.6
20260507212114 23 273 3.2 9.7 0.00 0.00 0.00 57 1018.7
20260507211611 23 166 1.6 6.4 0.00 0.00 0.00 57 1018.6
20260507211107 24 254 0.0 1.6 0.00 0.00 0.00 57 1018.8
20260507210605 24 202 1.6 16.1 0.00 0.00 0.00 57 1018.8
20260507205558 24 63 1.6 3.2 0.00 0.00 0.00 57 1018.8
20260507205054 24 174 1.6 11.3 0.00 0.00 0.00 57 1018.9
20260507204550 24 104 0.0 11.3 0.00 0.00 0.00 57 1018.9
20260507204048 24 37 0.0 6.4 0.00 0.00 0.00 58 1019.1
20260507203546 25 190 6.4 9.7 0.00 0.00 0.00 57 1019.0
20260507203043 24 267 3.2 4.8 0.00 0.00 0.00 58 1019.0
20260507202539 24 163 1.6 6.4 0.00 0.00 0.00 58 1019.2
20260507202035 24 269 3.2 11.3 0.00 0.00 0.00 58 1019.2
20260507201531 24 12 4.8 9.7 0.00 0.00 0.00 58 1019.1
20260507201027 24 228 4.8 11.3 0.00 0.00 0.00 58 1019.3
20260507200523 24 285 8.0 12.9 0.00 0.00 0.00 59 1018.9
20260507200019 24 224 1.6 9.7 0.00 0.00 0.00 58 1019.0
20260507195516 25 264 6.4 11.3 0.00 0.00 0.00 58 1019.3
20260507195014 25 266 6.4 9.7 0.00 0.00 0.00 57 1019.3
20260507194510 25 140 1.6 9.7 0.00 0.00 0.00 59 1019.3
20260507194006 25 106 1.6 9.7 0.00 0.00 0.00 57 1019.1
20260507193504 25 194 1.6 6.4 0.00 0.00 0.00 57 1019.3
20260507193000 25 210 4.8 6.4 0.00 0.00 0.00 56 1019.0
20260507192456 25 73 0.0 6.4 0.00 0.00 0.00 56 1019.4
20260507191953 25 248 6.4 9.7 0.00 0.00 0.00 55 1019.3
20260507191449 25 161 1.6 4.8 0.00 0.00 0.00 55 1019.3
20260507190946 25 205 3.2 6.4 0.00 0.00 0.00 54 1019.4
20260507190443 25 143 1.6 4.8 0.00 0.00 0.00 53 1019.4
20260507185942 25 207 1.6 9.7 0.00 0.00 0.00 56 1019.6
20260507185439 25 354 3.2 4.8 0.00 0.00 0.00 53 1019.4
20260507184936 25 224 3.2 11.3 0.00 0.00 0.00 53 1019.6
20260507184434 25 186 3.2 6.4 0.00 0.00 0.00 53 1019.6
20260507183932 25 158 0.0 3.2 0.00 0.00 0.00 53 1019.7
20260507183428 25 54 1.6 4.8 0.00 0.00 0.00 55 1019.8
20260507182925 24 209 3.2 9.7 0.00 0.00 0.00 54 1019.8
20260507182421 23 190 3.2 6.4 0.00 0.00 0.00 56 1019.7
20260507181917 23 266 4.8 6.4 0.00 0.00 0.00 55 1019.7
20260507181414 24 170 0.0 1.6 0.00 0.00 0.00 55 1019.7
20260507180910 23 213 3.2 6.4 0.00 0.00 0.00 56 1019.9
20260507180407 23 143 3.2 4.8 0.00 0.00 0.00 58 1019.8
20260507175903 23 327 3.2 4.8 0.00 0.00 0.00 58 1019.6
20260507175400 23 254 4.8 9.7 0.00 0.00 0.00 58 1019.9
20260507174858 23 46 1.6 6.4 0.00 0.00 0.00 58 1019.9
20260507174355 22 102 0.0 3.2 0.00 0.00 0.00 59 1020.0
20260507173852 22 282 3.2 6.4 0.00 0.00 0.00 59 1019.9
20260507173349 22 155 1.6 6.4 0.00 0.00 0.00 58 1019.9
20260507172845 23 354 1.6 6.4 0.00 0.00 0.00 57 1019.9
20260507172342 23 151 1.6 4.8 0.00 0.00 0.00 56 1019.7
20260507171838 23 256 3.2 11.3 0.00 0.00 0.00 57 1019.8
20260507171335 22 131 0.0 4.8 0.00 0.00 0.00 59 1020.1
20260507170832 21 192 3.2 4.8 0.00 0.00 0.00 61 1020.0
20260507170329 21 180 0.0 4.8 0.00 0.00 0.00 62 1019.9
20260507165824 21 183 1.6 4.8 0.00 0.00 0.00 64 1020.0
20260507165321 21 255 3.2 4.8 0.00 0.00 0.00 63 1020.2
20260507164817 21 194 3.2 4.8 0.00 0.00 0.00 64 1020.0
20260507164314 21 236 1.6 3.2 0.00 0.00 0.00 64 1020.2
20260507163811 21 216 1.6 4.8 0.00 0.00 0.00 63 1019.9
20260507163309 20 56 3.2 6.4 0.00 0.00 0.00 65 1020.2
20260507162805 20 223 3.2 4.8 0.00 0.00 0.00 65 1020.3
20260507162301 20 143 0.0 4.8 0.00 0.00 0.00 66 1020.2
20260507161758 20 67 1.6 3.2 0.00 0.00 0.00 66 1020.1
20260507161254 20 183 3.2 4.8 0.00 0.00 0.00 67 1020.2
20260507160750 20 266 3.2 4.8 0.00 0.00 0.00 65 1020.2
20260507160247 19 176 0.0 3.2 0.00 0.00 0.00 68 1020.3
20260507155743 20 138 0.0 3.2 0.00 0.00 0.00 66 1020.1
20260507155239 20 306 3.2 3.2 0.00 0.00 0.00 66 1020.1
20260507154736 19 137 0.0 0.0 0.00 0.00 0.00 68 1020.2
20260507154233 18 136 0.0 3.2 0.00 0.00 0.00 69 1020.4
20260507153730 18 219 1.6 4.8 0.00 0.00 0.00 72 1020.2
20260507153226 18 226 1.6 3.2 0.00 0.00 0.00 71 1020.2
20260507152723 17 147 0.0 1.6 0.00 0.00 0.00 73 1020.1
20260507152219 17 221 1.6 4.8 0.00 0.00 0.00 74 1020.3
20260507151715 16 230 1.6 4.8 0.00 0.00 0.00 75 1020.3
20260507151212 17 254 3.2 4.8 0.00 0.00 0.00 73 1020.2
20260507150709 17 39 0.0 0.0 0.00 0.00 0.00 72 1020.6
20260507150206 17 86 0.0 0.0 0.00 0.00 0.00 73 1020.3
20260507145701 17 119 0.0 0.0 0.00 0.00 0.00 73 1020.2
20260507145158 17 143 0.0 0.0 0.00 0.00 0.00 75 1020.3
20260507144655 16 131 0.0 0.0 0.00 0.00 0.00 77 1020.5
20260507144153 16 137 0.0 0.0 0.00 0.00 0.00 77 1020.3
20260507143649 16 129 0.0 0.0 0.00 0.00 0.00 77 1020.5
20260507143147 15 141 0.0 0.0 0.00 0.00 0.00 80 1020.3
20260507142642 15 153 0.0 0.0 0.00 0.00 0.00 81 1020.4
20260507142139 14 122 0.0 0.0 0.00 0.00 0.00 82 1020.3
20260507141635 13 122 0.0 0.0 0.00 0.00 0.00 84 1020.1
20260507141132 13 138 0.0 0.0 0.00 0.00 0.00 86 1020.0
20260507140628 13 189 0.0 0.0 0.00 0.00 0.00 86 1020.3
20260507140126 13 192 0.0 0.0 0.00 0.00 0.00 86 1020.0
20260507135623 12 196 0.0 0.0 0.00 0.00 0.00 89 1020.1
20260507135120 12 198 0.0 0.0 0.00 0.00 0.00 89 1019.9
20260507134616 12 198 0.0 0.0 0.00 0.00 0.00 90 1019.8
20260507134113 11 199 0.0 0.0 0.00 0.00 0.00 92 1019.8
20260507133609 11 199 0.0 0.0 0.00 0.00 0.00 92 1019.9
20260507133107 11 199 0.0 0.0 0.00 0.00 0.00 92 1019.8
20260507132603 11 199 0.0 0.0 0.00 0.00 0.00 92 1019.8
20260507132059 11 199 0.0 0.0 0.00 0.00 0.00 92 1019.6
20260507131556 11 199 0.0 0.0 0.00 0.00 0.00 92 1019.8
20260507131054 11 199 0.0 0.0 0.00 0.00 0.00 93 1019.7
20260507130550 11 199 0.0 0.0 0.00 0.00 0.00 93 1019.8
20260507130049 11 199 0.0 0.0 0.00 0.00 0.00 93 1019.6
20260507125547 11 199 0.0 0.0 0.00 0.00 0.00 93 1019.4
20260507125044 11 199 0.0 0.0 0.00 0.00 0.00 93 1019.3
20260507124540 11 199 0.0 0.0 0.00 0.00 0.00 93 1019.4
20260507124038 10 199 0.0 0.0 0.00 0.00 0.00 93 1019.4
20260507123536 10 199 0.0 0.0 0.00 0.00 0.00 93 1019.3
20260507123033 10 199 0.0 0.0 0.00 0.00 0.00 93 1019.7
20260507122528 11 199 0.0 0.0 0.00 0.00 0.00 92 1019.4
20260507122024 11 199 0.0 0.0 0.00 0.00 0.00 92 1019.6
20260507121520 11 199 0.0 0.0 0.00 0.00 0.00 92 1019.6
20260507121016 11 199 0.0 0.0 0.00 0.00 0.00 92 1019.4
20260507120512 11 199 0.0 0.0 0.00 0.00 0.00 92 1019.6
20260507120009 11 199 0.0 0.0 0.00 0.00 0.00 93 1019.4
20260507115505 11 199 0.0 0.0 0.00 0.00 0.00 92 1019.4
20260507115001 11 199 0.0 0.0 0.00 0.00 0.00 92 1019.4
20260507114457 11 199 0.0 0.0 0.00 0.00 0.00 91 1019.4
20260507113955 11 199 0.0 0.0 0.00 0.00 0.00 91 1019.3
20260507113452 11 199 0.0 0.0 0.00 0.00 0.00 91 1019.6
20260507112949 11 199 0.0 0.0 0.00 0.00 0.00 91 1019.7
20260507112447 11 199 0.0 0.0 0.00 0.00 0.00 91 1019.7
20260507111943 11 199 0.0 0.0 0.00 0.00 0.00 91 1019.7
20260507111441 11 199 0.0 0.0 0.00 0.00 0.00 91 1019.6
20260507110937 11 199 0.0 0.0 0.00 0.00 0.00 90 1019.7
20260507110433 11 199 0.0 0.0 0.00 0.00 0.00 90 1019.8
20260507105930 12 199 0.0 0.0 0.00 0.00 0.00 90 1020.0
20260507105427 12 198 0.0 0.0 0.00 0.00 0.00 90 1019.8
20260507104923 11 199 0.0 0.0 0.00 0.00 0.00 90 1019.9
20260507104420 11 199 0.0 0.0 0.00 0.00 0.00 90 1019.8
20260507103916 11 199 0.0 0.0 0.00 0.00 0.00 91 1019.8
20260507103413 11 199 0.0 0.0 0.00 0.00 0.00 90 1020.1
20260507102909 11 199 0.0 0.0 0.00 0.00 0.00 90 1020.0
20260507102406 11 199 0.0 0.0 0.00 0.00 0.00 90 1019.8
20260507101902 11 199 0.0 0.0 0.00 0.00 0.00 89 1020.0
20260507101357 12 199 0.0 0.0 0.00 0.00 0.00 89 1019.9
20260507100854 12 198 0.0 0.0 0.00 0.00 0.00 89 1019.8
20260507100352 12 198 0.0 0.0 0.00 0.00 0.00 90 1019.8
20260507095850 12 198 0.0 0.0 0.00 0.00 0.00 90 1019.9
20260507095346 11 198 0.0 0.0 0.00 0.00 0.00 90 1020.1
20260507094843 12 198 0.0 0.0 0.00 0.00 0.00 90 1020.1
20260507094339 12 198 0.0 0.0 0.00 0.00 0.00 90 1020.0
20260507093837 11 199 0.0 0.0 0.00 0.00 0.00 89 1020.0
20260507093335 12 199 0.0 0.0 0.00 0.00 0.00 89 1020.0
20260507092833 12 199 0.0 0.0 0.00 0.00 0.00 89 1020.2
20260507092329 12 199 0.0 0.0 0.00 0.00 0.00 88 1020.3
20260507091825 12 199 0.0 0.0 0.00 0.00 0.00 87 1020.1
20260507091322 12 199 0.0 0.0 0.00 0.00 0.00 88 1020.3
20260507090818 12 205 0.0 0.0 0.00 0.00 0.00 90 1020.3
20260507090314 12 197 0.0 0.0 0.00 0.00 0.00 90 1020.2
20260507085811 12 197 0.0 0.0 0.00 0.00 0.00 90 1020.5
20260507085308 12 197 0.0 0.0 0.00 0.00 0.00 89 1020.4
20260507084806 12 197 0.0 0.0 0.00 0.00 0.00 89 1020.5
20260507084301 12 197 0.0 0.0 0.00 0.00 0.00 89 1020.6
20260507083759 12 197 0.0 0.0 0.00 0.00 0.00 89 1020.5
20260507083255 12 197 0.0 0.0 0.00 0.00 0.00 89 1020.6
20260507082751 12 197 0.0 0.0 0.00 0.00 0.00 89 1020.7
20260507082247 12 197 0.0 0.0 0.00 0.00 0.00 89 1020.7
20260507081744 12 197 0.0 0.0 0.00 0.00 0.00 89 1020.6
20260507081240 12 197 0.0 0.0 0.00 0.00 0.00 89 1020.8
20260507080737 12 197 0.0 0.0 0.00 0.00 0.00 90 1020.9
20260507080233 12 197 0.0 0.0 0.00 0.00 0.00 91 1020.8
20260507075729 12 198 0.0 0.0 0.00 0.00 0.00 90 1020.6
20260507075225 12 198 0.0 0.0 0.00 0.00 0.00 91 1020.8
20260507074722 12 198 0.0 0.0 0.00 0.00 0.00 91 1020.8
20260507074220 12 198 0.0 0.0 0.00 0.00 0.00 92 1020.8
20260507073716 12 201 0.0 0.0 0.00 0.00 0.00 94 1020.8
20260507073213 11 202 0.0 0.0 0.00 0.00 0.00 94 1020.8
20260507072711 12 203 0.0 0.0 0.00 0.00 0.00 94 1020.9
20260507072208 12 203 0.0 0.0 0.00 0.00 0.00 94 1020.9
20260507071705 12 203 0.0 0.0 0.00 0.00 0.00 94 1020.9
20260507071202 12 203 0.0 0.0 0.00 0.00 0.00 93 1021.1
20260507070659 11 203 0.0 0.0 0.00 0.00 0.00 93 1021.2
20260507070155 12 203 0.0 0.0 0.00 0.00 0.00 93 1021.0
20260507065652 12 203 0.0 0.0 0.00 0.00 0.00 92 1021.1
20260507065149 12 203 0.0 0.0 0.00 0.00 0.00 92 1020.9
20260507064646 12 203 0.0 0.0 0.00 0.00 0.00 92 1021.1
20260507064145 12 203 0.0 0.0 0.00 0.00 0.00 92 1021.1